Wind_Speed
48 54 54 58 69 66 61 59 61 60 61 64 66 62 59 62 59 59 56 53 52 44 42 37 36 42 59 63 59 61 62 59 64 64 47 48 57 52 53 56 59 59 61 62
45 48 46 47 50 53 51 49 53 53 65 53 52 60 62 71 69 67 74 72 68 64 63 60 57 55 51 51 57 58 55 52 55 56 54 58 59 56 59 60 60 63 62 63
39 40 46 53 49 48 47 49 52 56 54 54 52 53 55 59 56 57 65 66 64 66 69 69 70 69 66 58 55 54 52 51 53 57 61 63 65 63 58 57 56 64 66 61
54 53 53 53 52 52 53 56 58 58 56 58 54 50 50 52 51 54 56 57 54 53 57 69 76 76 69 61 67 66 55 54 56 59 67 69 66 68 67 61 55 56 57 57
39 43 45 46 44 44 43 42 45 46 48 49 51 52 49 51 52 53 53 53 51 52 55 57 55 55 60 63 64 65 60 56 57 59 64 69 70 65 64 77 73 67 64 60
29 31 33 30 31 32 36 34 40 39 41 43 43 42 38 44 43 46 47 49 51 52 52 51 51 52 54 58 60 61 59 60 59 60 63 67 69 67 67 77 73 68 61 57
24 23 21 23 22 23 27 31 32 31 34 36 38 41 42 41 43 46 48 50 51 52 51 52 51 50 50 50 52 53 54 52 53 54 56 57 60 62 57 61 58 56 56 55
17 22 23 17 19 21 22 23 25 27 29 30 31 33 35 35 38 40 44 48 51 54 54 53 54 54 52 49 52 53 50 49 46 49 52 55 60 58 58 57 53 56 49 49
16 18 17 16 17 18 19 21 17 18 22 25 27 30 32 35 36 39 40 41 43 48 55 58 60 61 60 55 55 53 51 49 47 44 43 47 53 59 61 60 57 54 51 43
13 15 15 17 19 19 20 22 27 31 34 35 37 40 42 43 45 47 48 50 51 53 57 59 58 59 63 64 63 60 57 55 51 47 45 44 48 51 56 58 56 54 51 46
11 14 16 19 22 23 26 28 31 33 34 37 40 40 42 40 38 37 38 42 44 47 48 50 51 52 57 60 58 59 58 55 52 47 45 46 43 43 45 50 54 52 50 52
16 19 23 26 29 31 32 32 34 35 37 38 36 34 35 32 33 35 33 34 37 39 39 38 39 37 41 42 38 38 36 40 44 37 32 30 32 34 37 36 39 43 50 51
21 23 24 23 23 24 26 28 26 27 29 30 32 34 34 32 31 30 33 26 19 20 27 27 14 17 21 22 32 31 30 30 37 31 32 31 26 20 18 27 37 33 30 31
13 13 14 15 17 17 16 18 22 24 26 28 29 28 26 24 23 27 20 16 12 15 14 10 9 13 12 21 26 35 36 34 37 34 20 19 22 20 20 21 29 29 29 30
13 14 11 10 11 11 13 16 21 23 26 29 30 22 18 16 16 15 14 2 8 6 15 6 15 13 19 31 37 32 29 33 38 31 23 21 24 28 29 34 38 32 26 23
11 8 4 3 7 12 15 18 22 26 25 29 16 10 12 11 7 2 7 6 2 6 12 13 11 15 21 31 24 27 27 31 30 30 24 22 24 23 27 32 34 31 29 27
7 4 3 7 10 12 16 20 24 29 30 20 6 5 8 6 3 8 6 5 7 7 10 8 15 14 20 32 31 28 36 27 34 30 24 22 24 30 32 28 27 29 27 24
6 3 3 5 9 13 18 22 26 30 32 9 4 2 3 6 1 8 11 5 9 8 9 14 26 25 29 36 37 31 29 27 25 25 26 29 33 35 35 36 34 29 28 28
8 7 6 7 11 15 17 21 24 29 32 5 3 3 3 3 1 7 14 6 9 14 15 16 20 26 30 32 31 25 21 25 29 31 33 33 33 31 28 25 26 26 27 28
12 12 13 13 14 15 17 19 22 25 27 17 2 4 6 5 3 5 11 7 7 13 17 20 20 24 27 25 24 23 24 32 39 36 31 28 26 25 26 26 26 26 25 24
17 17 17 18 17 16 15 16 18 20 22 22 10 8 9 6 6 5 8 9 5 5 14 16 21 24 25 28 30 33 34 30 27 25 24 24 24 23 21 21 21 22 23 25
21 22 22 21 20 18 16 15 16 16 19 19 18 9 11 13 10 11 9 13 12 10 12 14 15 17 20 22 23 22 21 22 24 25 24 24 22 22 22 22 23 24 26 28
30 30 30 29 28 25 22 20 19 18 16 16 16 15 9 11 16 14 14 15 16 17 16 16 16 17 17 17 16 17 18 18 20 21 22 23 23 23 24 25 25 26 27 26
36 35 34 33 32 30 28 26 25 22 20 17 14 14 12 11 13 18 19 19 19 20 21 21 20 20 20 21 22 23 23 24 24 24 24 25 25 26 26 25 23 24 26 30
41 42 41 40 39 37 35 33 29 26 23 21 18 15 14 12 11 15 20 24 23 24 23 25 24 24 23 24 24 25 25 25 25 25 25 24 24 25 26 25 28 29 32 32
40 45 49 49 47 45 43 37 32 28 28 24 21 20 19 16 14 13 16 19 26 29 28 29 30 29 29 29 29 29 29 28 27 26 26 26 26 27 29 30 31 31 32 34
38 39 40 41 42 42 42 40 40 36 35 32 28 25 24 22 21 20 18 18 20 24 30 34 35 33 32 32 33 32 31 31 30 30 30 31 30 31 30 28 28 32 33 34
Wind_Direction
251 250 253 254 254 260 268 268 269 269 265 264 269 270 268 265 269 268 261 261 262 244 243 243 241 241 238 241 242 243 247 249 251 249 253 257 254 258 260 264 263 266 261 256
258 259 254 255 259 267 268 269 270 272 268 275 274 275 276 272 276 278 275 272 273 273 269 260 259 259 265 247 233 240 239 246 247 246 249 263 267 264 268 267 264 262 262 258
236 243 255 261 261 262 269 276 276 275 274 275 274 276 277 278 278 279 279 281 281 279 275 274 267 271 271 271 258 252 252 254 255 262 264 264 269 269 268 269 264 259 254 255
254 253 257 261 262 268 270 271 272 272 272 275 277 277 274 272 273 273 273 272 273 273 274 275 276 274 278 278 275 276 270 264 265 265 267 265 263 269 271 271 260 254 254 256
255 257 260 260 263 266 265 266 266 266 268 269 270 274 273 272 273 273 271 270 269 269 269 271 271 270 272 272 272 272 270 265 258 260 262 265 266 265 266 269 270 260 260 263
254 257 262 256 264 263 265 265 264 265 267 269 269 268 264 272 268 269 268 267 268 268 267 265 263 262 260 263 264 266 265 266 264 260 258 256 256 257 257 260 260 263 264 264
247 250 255 260 259 257 261 262 269 269 267 266 267 267 268 267 269 268 268 269 267 264 263 264 263 259 257 256 255 254 255 253 251 249 246 246 246 246 244 252 251 250 253 248
235 243 253 244 253 266 272 273 274 273 271 270 268 267 271 272 272 272 271 271 271 269 267 265 264 263 258 252 249 245 245 245 246 245 243 241 238 239 239 241 242 241 240 246
226 236 246 256 268 276 273 274 277 281 280 283 279 276 273 271 272 272 271 270 269 269 267 266 265 264 261 259 255 250 245 244 239 238 240 242 243 241 239 236 241 237 240 243
234 251 258 268 274 276 273 273 279 285 286 287 284 280 277 275 273 273 273 272 266 263 264 266 261 256 259 258 255 251 247 244 242 241 242 243 245 245 246 242 237 232 235 244
252 267 273 275 277 278 280 283 285 287 285 284 285 286 284 280 277 276 275 274 275 273 270 268 264 261 257 252 247 243 241 238 240 239 236 241 248 256 253 246 242 237 236 238
263 270 268 272 275 277 280 284 287 288 288 288 288 288 290 292 289 290 283 284 276 271 273 270 264 257 246 241 233 231 222 219 216 218 215 218 222 216 234 237 242 242 243 246
275 277 279 280 282 282 284 285 288 291 294 292 288 285 287 290 290 287 291 281 275 279 271 272 254 234 230 213 194 201 198 183 181 200 213 198 216 235 247 232 211 225 224 233
283 288 297 296 294 289 293 299 305 309 309 305 298 291 290 294 287 293 287 274 293 282 268 191 201 224 224 176 173 164 164 174 189 192 212 223 216 221 234 233 226 212 221 222
282 297 302 296 299 310 317 320 320 315 311 312 305 290 286 288 293 305 312 310 292 291 162 131 139 119 172 161 156 158 177 190 193 201 208 206 206 203 208 219 224 202 194 184
270 286 292 326 336 333 332 334 337 335 325 320 295 269 278 269 291 226 143 221 181 154 185 165 152 137 151 163 164 166 179 186 191 202 213 211 210 220 215 223 202 182 181 191
235 249 314 333 337 341 347 346 344 344 339 325 258 261 273 257 291 159 144 178 136 151 166 165 171 167 161 166 168 188 189 201 204 204 214 213 222 211 184 170 178 189 198 201
204 230 285 326 331 335 339 342 345 348 348 320 227 235 284 274 350 179 153 150 159 162 162 164 170 177 164 169 175 184 193 193 206 220 221 210 195 182 184 189 193 198 205 211
225 241 263 300 324 335 342 343 347 354 1 336 184 168 195 244 191 188 168 191 186 167 175 180 186 186 183 183 186 191 199 209 206 185 177 176 179 182 188 196 204 210 215 221
254 253 262 282 303 314 337 345 349 357 7 6 298 232 217 233 233 181 202 206 199 174 177 176 185 195 192 197 197 198 201 192 182 174 174 178 182 191 198 205 211 217 226 235
261 262 266 276 287 295 315 331 341 352 0 8 352 279 248 235 233 200 202 217 215 197 175 171 171 170 180 185 193 192 182 177 169 172 180 186 194 202 211 219 226 235 241 253
260 261 267 272 278 285 292 307 320 329 344 351 358 335 279 241 235 229 196 205 211 236 196 183 176 173 169 167 169 173 177 180 183 186 191 199 206 213 222 229 236 249 257 261
260 261 263 268 269 269 275 285 297 304 312 324 335 349 309 276 240 228 225 208 205 208 207 191 189 188 184 178 182 184 186 188 190 195 203 211 216 225 236 244 251 256 261 262
266 267 267 264 262 260 262 268 277 284 291 297 307 321 339 320 270 240 227 225 218 208 207 206 202 200 200 198 199 201 202 203 209 215 222 227 232 235 239 242 246 255 266 275
267 266 266 265 262 260 260 264 267 268 269 276 278 285 302 309 311 266 239 227 228 217 212 212 212 209 208 210 212 214 217 220 223 225 226 229 234 239 241 248 257 262 270 277
277 271 266 264 262 263 264 261 260 257 255 256 258 264 271 283 288 292 266 256 234 228 222 216 216 217 216 218 221 222 222 222 222 224 228 233 237 243 248 253 258 270 278 286
290 285 277 270 265 262 262 259 262 260 254 252 252 257 263 268 273 272 275 264 251 239 233 232 229 226 223 222 222 225 227 228 227 232 236 239 245 251 257 264 270 275 280 284
Height
5467 5472 5474 5478 5480 5480 5480 5481 5485 5484 5488 5488 5489 5496 5498 5498 5501 5503 5507 5511 5513 5516 5522 5527 5533 5539 5541 5546 5553 5561 5565 5570 5575 5579 5585 5591 5596 5599 5602 5605 5608 5612 5615 5619
5458 5459 5462 5464 5467 5467 5470 5469 5471 5473 5477 5474 5477 5482 5483 5481 5482 5485 5489 5492 5496 5499 5504 5512 5516 5520 5525 5529 5533 5543 5550 5554 5559 5562 5567 5573 5580 5584 5587 5590 5592 5595 5598 5600
5448 5450 5451 5455 5458 5459 5459 5459 5460 5459 5464 5459 5468 5470 5468 5467 5469 5473 5472 5473 5476 5482 5486 5491 5495 5499 5504 5510 5516 5523 5529 5534 5540 5545 5550 5554 5560 5567 5570 5573 5576 5580 5583 5582
5436 5439 5443 5444 5447 5447 5448 5449 5448 5450 5449 5448 5451 5453 5454 5454 5457 5458 5459 5463 5465 5467 5469 5474 5478 5482 5485 5489 5496 5503 5509 5513 5517 5524 5531 5537 5541 5546 5553 5556 5559 5565 5567 5569
5427 5430 5431 5436 5435 5436 5436 5438 5436 5437 5436 5439 5440 5439 5437 5438 5441 5442 5444 5448 5451 5453 5456 5458 5461 5464 5468 5472 5477 5483 5490 5494 5498 5504 5511 5515 5518 5520 5528 5537 5542 5547 5550 5553
5420 5422 5423 5422 5425 5424 5425 5429 5424 5427 5426 5427 5428 5428 5424 5427 5425 5426 5429 5431 5432 5434 5438 5442 5444 5448 5451 5455 5458 5461 5465 5472 5478 5484 5489 5494 5498 5503 5511 5516 5521 5525 5530 5534
5412 5414 5415 5415 5415 5416 5419 5419 5417 5417 5416 5416 5416 5414 5413 5414 5413 5412 5412 5413 5414 5417 5421 5424 5425 5427 5432 5438 5442 5444 5448 5455 5460 5465 5469 5472 5478 5484 5491 5494 5502 5507 5512 5516
5406 5407 5409 5409 5409 5411 5410 5408 5407 5406 5405 5405 5404 5404 5401 5402 5401 5399 5399 5397 5396 5395 5400 5405 5405 5406 5414 5422 5425 5429 5434 5438 5443 5447 5450 5456 5462 5467 5473 5478 5485 5492 5497 5499
5402 5402 5402 5402 5402 5402 5401 5400 5399 5398 5397 5396 5396 5394 5392 5391 5390 5386 5384 5384 5382 5379 5381 5385 5384 5384 5393 5403 5405 5412 5418 5422 5427 5432 5437 5442 5447 5453 5458 5462 5468 5475 5481 5485
5397 5397 5396 5396 5395 5395 5394 5394 5392 5390 5388 5387 5384 5382 5380 5378 5377 5373 5371 5367 5365 5363 5361 5364 5365 5365 5370 5378 5384 5394 5401 5407 5415 5421 5426 5431 5436 5440 5444 5450 5456 5461 5467 5472
5392 5391 5391 5390 5389 5388 5387 5385 5383 5380 5378 5375 5372 5370 5365 5364 5362 5358 5355 5353 5349 5346 5343 5343 5344 5346 5349 5352 5358 5368 5378 5387 5397 5407 5414 5422 5426 5429 5433 5438 5444 5449 5454 5459
5387 5386 5384 5383 5381 5380 5379 5377 5375 5372 5368 5364 5360 5358 5355 5353 5350 5347 5344 5341 5336 5332 5330 5328 5327 5328 5329 5333 5340 5351 5362 5372 5384 5395 5405 5412 5418 5421 5423 5428 5432 5438 5443 5447
5380 5379 5378 5376 5374 5372 5371 5369 5366 5363 5359 5356 5352 5348 5345 5343 5340 5336 5332 5328 5325 5323 5321 5318 5318 5318 5319 5323 5331 5343 5354 5365 5379 5390 5395 5402 5408 5411 5415 5420 5422 5429 5433 5437
5375 5374 5372 5370 5369 5367 5365 5363 5360 5356 5352 5347 5343 5339 5337 5334 5332 5328 5324 5322 5320 5317 5315 5314 5315 5316 5317 5321 5329 5340 5351 5362 5375 5383 5389 5395 5401 5405 5411 5415 5419 5423 5427 5429
5371 5370 5369 5367 5365 5364 5362 5359 5355 5350 5345 5339 5333 5330 5330 5328 5326 5323 5320 5319 5318 5315 5316 5317 5317 5320 5321 5325 5334 5343 5352 5364 5372 5379 5385 5390 5395 5400 5405 5409 5412 5416 5420 5426
5368 5367 5366 5365 5363 5361 5358 5355 5350 5345 5338 5331 5325 5324 5324 5323 5322 5319 5320 5319 5318 5317 5318 5320 5322 5322 5328 5331 5338 5347 5353 5360 5367 5375 5381 5386 5391 5396 5399 5404 5407 5412 5418 5424
5364 5365 5364 5362 5360 5358 5355 5351 5346 5340 5332 5324 5322 5322 5322 5321 5320 5319 5320 5320 5319 5319 5320 5323 5324 5326 5329 5336 5342 5346 5351 5358 5365 5371 5377 5382 5387 5391 5395 5401 5408 5414 5418 5423
5362 5362 5361 5360 5358 5355 5352 5348 5343 5336 5327 5321 5320 5321 5321 5321 5320 5320 5321 5322 5322 5323 5324 5326 5329 5330 5333 5336 5341 5348 5354 5359 5364 5369 5374 5378 5384 5389 5395 5401 5407 5412 5417 5420
5360 5359 5359 5357 5356 5353 5350 5346 5341 5335 5326 5321 5320 5321 5320 5320 5320 5320 5322 5324 5324 5325 5327 5329 5331 5334 5338 5341 5344 5349 5354 5358 5362 5367 5372 5378 5384 5389 5395 5400 5406 5410 5414 5418
5357 5357 5355 5354 5353 5351 5348 5344 5341 5335 5329 5324 5323 5321 5321 5321 5320 5321 5322 5323 5326 5327 5328 5330 5332 5335 5338 5342 5345 5349 5353 5357 5362 5367 5372 5378 5384 5390 5394 5399 5404 5408 5411 5414
5353 5352 5352 5350 5349 5347 5345 5342 5340 5336 5332 5328 5324 5323 5321 5321 5321 5321 5322 5323 5324 5327 5329 5331 5333 5335 5338 5341 5345 5349 5353 5358 5362 5368 5374 5379 5385 5389 5393 5397 5400 5403 5406 5409
5347 5347 5346 5345 5344 5342 5341 5339 5337 5335 5332 5329 5326 5322 5320 5320 5320 5321 5323 5324 5325 5327 5330 5332 5334 5337 5339 5342 5345 5349 5353 5358 5362 5367 5371 5377 5381 5385 5389 5392 5396 5398 5400 5401
5339 5338 5338 5337 5337 5336 5335 5334 5333 5332 5330 5328 5325 5323 5320 5319 5319 5320 5321 5324 5325 5327 5329 5331 5334 5337 5340 5343 5346 5350 5354 5358 5361 5365 5370 5374 5378 5381 5384 5387 5389 5391 5392 5394
5329 5328 5328 5327 5326 5327 5327 5326 5326 5326 5325 5324 5323 5321 5319 5317 5316 5317 5319 5321 5323 5325 5328 5330 5333 5335 5338 5342 5346 5349 5352 5356 5360 5363 5367 5370 5373 5375 5378 5379 5381 5383 5384 5384
5317 5316 5316 5316 5316 5315 5316 5317 5317 5318 5318 5318 5318 5317 5316 5315 5314 5313 5314 5317 5319 5321 5323 5326 5329 5332 5335 5339 5342 5345 5348 5351 5355 5358 5361 5363 5366 5368 5370 5371 5373 5373 5374 5373
5301 5300 5299 5300 5301 5301 5302 5304 5306 5307 5308 5310 5310 5311 5310 5310 5310 5309 5309 5310 5313 5315 5317 5320 5323 5326 5329 5332 5336 5339 5342 5345 5348 5351 5353 5355 5358 5360 5362 5362 5363 5363 5363 5362
5286 5283 5281 5281 5282 5284 5286 5288 5291 5294 5297 5299 5300 5302 5303 5304 5304 5304 5304 5305 5306 5307 5310 5313 5316 5319 5322 5324 5328 5331 5334 5337 5340 5343 5345 5347 5349 5351 5352 5352 5352 5353 5353 5352